Retour au catalogue

STARLINK-32382

ActifCommunicationsVLEO
NORAD 61258·PAYLOAD·🇺🇸 United States

Lancé Sep 25, 2024 depuis Vandenberg Space Force Base

Loading…

Prochains Passages (prochaines 24 heures)

TLE

FraisSource: CelesTrak SupGP

Époque: Sep 15, 2026, 02:05 UTC

1 61258C 24175R   26258.08729167 -.00005230  00000+0 -15454-3 0  2585
2 61258  53.1597  30.8766 0001048  77.5510 137.4182 15.34390247    17

Suivez STARLINK-32382 en temps réel avec AllMySat

Download on the App Store